Content
SEND FEEDBACK

Daily
Averages
Monthly
Summary
United Kingdom

YORK, ENGLAND


Home > Europe > United Kingdom > England
Elevation: 27 feet     Latitude: 53 50N     Longitude: 001 11W

WEATHER
 
SELECT A DAY
Number of Records: 48,838;   Date Range: 6/27/01 - 12/19/13
 
SHARE

PRINT THIS DATA

[ ← Previous Day ]
WEATHER ALMANAC - JANUARY 1, 2013
[ Next Day → ]
[ °C ]   °F
Weather ElementAverageHighLow
Temperature42.2 °F45 °F (11:50 am)37.4 °F (5:50 am)
Dewpoint36.4 °F39.2 °F (7:50 pm)33.8 °F (4:50 am)
Humidity78.4 %87 % (2:50 am)62 % (11:50 am)
Barometer29.66 in29.96 in (11:50 pm)29.44 in (1:50 am)
Wind Speed11.8 mph17.3 mph (12:50 pm)
Weather ElementAverage
Visibility9.2 mi
Wind DirectionW (268.1 °)

Weather ElementTotal
Precipitation---
Heating Degree Days23.8 (Base 65)
Averaged from 31 records on January 1, 2013
WEATHER CONDITIONS BREAKOUT
WIND DIRECTION BREAKOUT
WEATHER BY HOUR - JANUARY 1, 2013
[ °C ]   °F
Local TimeTemperatureDewpointHumidityBarometerVisibilityWind DirectionWind SpeedGust SpeedPrecipitationEventsConditions
1:50 AM41.0 °F35.6 °F81 %29.44 in6.2 miWest (260°)11.5 mph
2:50 AM40.0 °F35.0 °F76 %29.47 in19.0 miWSW (240°)9.2 mph
2:50 AM39.2 °F35.6 °F87 %29.44 in6.2 miWSW (240°)9.2 mph
3:50 AM39.2 °F35.6 °F87 %29.47 in6.2 miSW (220°)6.9 mphScattered Clouds
4:50 AM39.2 °F33.8 °F81 %29.47 in6.2 miWSW (240°)5.8 mph
5:50 AM38.0 °F34.0 °F79 %29.50 in17.0 miSW (230°)8.1 mph
5:50 AM37.4 °F33.8 °F87 %29.47 in6.2 miSW (230°)8.1 mph
6:50 AM41.0 °F33.8 °F76 %29.50 in6.2 miWest (270°)15.0 mph
7:50 AM39.2 °F33.8 °F81 %29.53 in6.2 miWest (270°)9.2 mphScattered Clouds
8:50 AM40.0 °F34.0 °F72 %29.57 in19.0 miWest (260°)10.4 mph
8:50 AM39.2 °F33.8 °F81 %29.56 in6.2 miWest (260°)10.4 mph
9:50 AM42.8 °F35.6 °F76 %29.59 in6.2 miWest (260°)11.5 mphPartly Cloudy
10:50 AM42.8 °F35.6 °F76 %29.59 in6.2 miWest (270°)12.7 mphScattered Clouds
11:50 AM45.0 °F36.0 °F62 %29.62 in19.0 miWest (280°)13.8 mphScattered Clouds
11:50 AM44.6 °F35.6 °F71 %29.62 in6.2 miWest (280°)13.8 mphPartly Cloudy
12:50 PM44.6 °F37.4 °F76 %29.65 in6.2 miWest (280°)17.3 mphScattered Clouds
1:50 PM44.6 °F37.4 °F76 %29.65 in6.2 miWest (280°)17.3 mphScattered Clouds
2:50 PM45.0 °F37.0 °F64 %29.68 in19.0 miWest (280°)16.1 mphScattered Clouds
2:50 PM44.6 °F37.4 °F76 %29.65 in6.2 miWest (280°)16.1 mphScattered Clouds
3:50 PM44.6 °F37.4 °F76 %29.68 in6.2 miWest (270°)17.3 mphPartly Cloudy
4:50 PM44.6 °F37.4 °F76 %29.71 in6.2 miWest (270°)12.7 mphScattered Clouds
5:50 PM44.0 °F38.0 °F71 %29.77 in19.0 miWest (280°)10.4 mph
5:50 PM42.8 °F37.4 °F81 %29.77 in6.2 miWest (280°)10.4 mph
6:50 PM44.6 °F37.4 °F76 %29.77 in6.2 miWest (270°)11.5 mphPartly Cloudy
7:50 PM44.6 °F39.2 °F81 %29.83 in6.2 miWNW (290°)10.4 mph
8:50 PM44.0 °F39.0 °F76 %29.87 in16.0 miWest (280°)13.8 mphScattered Clouds
8:50 PM42.8 °F39.2 °F87 %29.86 in6.2 miWest (280°)13.8 mphPartly Cloudy
9:50 PM42.8 °F39.2 °F87 %29.89 in6.2 miWest (280°)9.2 mphMostly Cloudy
10:50 PM42.8 °F39.2 °F87 %29.92 in6.2 miWNW (300°)10.4 mphPartly Cloudy
11:50 PM42.0 °F38.0 °F81 %29.96 in15.0 miWNW (290°)11.5 mphPartly Cloudy
11:50 PM41.0 °F37.4 °F87 %29.95 in6.2 miWNW (290°)11.5 mphScattered Clouds
Hourly data recorded from EGXG, located miles away from York, England







STORIES FROM OUR PARTNERS